GFSNIL_sfc_temp_000.txt.gz
Temp
81 85 84 83 81 83 82 83 80 80 80 80 80 80 79 80 81 79 77 76 74 73
81 80 81 80 80 84 80 83 82 80 79 79 80 79 77 80 79 78 77 76 76 74
82 81 81 80 79 79 80 80 79 80 80 80 80 79 78 78 77 75 76 77 76 76
82 82 81 80 81 80 80 79 79 79 79 79 79 79 77 77 78 76 75 76 74 74
81 81 80 80 81 81 79 80 79 79 79 79 79 79 77 76 76 74 73 73 73 72
80 80 79 79 80 81 80 79 80 79 78 78 79 78 77 76 75 75 74 73 69 68
80 80 80 80 80 80 80 79 79 79 78 79 78 78 77 76 75 74 73 71 65 63
81 81 80 79 79 80 80 80 79 79 79 80 80 82 76 75 75 72 71 69 63 62
81 80 80 80 79 79 79 79 79 79 79 78 81 63 65 68 75 72 69 65 61 61
81 80 80 80 79 78 78 79 78 78 78 77 78 65 64 65 75 72 69 68 63 60
81 80 80 79 78 78 79 77 77 77 78 78 79 63 63 64 74 70 70 68 67 62
82 80 79 78 78 78 77 77 77 78 77 77 77 61 61 63 75 70 70 71 67 66
83 81 79 79 78 78 78 78 81 79 79 74 77 65 59 64 70 68 69 71 69 61
82 80 79 79 78 77 76 77 77 77 78 78 76 75 58 56 72 68 68 66 71 66

GFSNIL_sfc_temp_003.txt.gz
Temp
84 86 86 86 83 84 84 85 83 82 82 81 81 81 81 81 82 79 77 77 77 75
83 82 82 82 82 85 83 86 84 82 81 82 82 81 80 82 80 79 75 76 75 75
85 84 83 82 81 81 81 82 81 81 82 82 81 81 80 80 81 78 79 79 75 75
84 85 84 82 82 82 82 81 81 81 80 81 80 81 79 77 78 76 75 75 75 75
84 83 83 82 82 82 81 82 81 81 80 80 81 80 79 77 78 76 72 75 73 72
83 82 81 81 82 82 81 81 81 81 80 79 80 79 78 78 76 74 75 75 73 71
83 82 82 82 82 82 82 81 80 80 80 80 80 80 80 78 76 75 76 75 72 71
84 83 82 81 81 82 82 81 81 80 81 81 82 84 77 78 77 75 74 75 74 72
84 83 82 82 82 82 81 81 81 80 80 80 83 66 67 71 75 75 73 73 73 71
83 82 82 82 82 80 80 81 80 79 79 79 80 64 67 69 74 74 73 72 71 72
83 82 82 82 80 80 80 79 78 79 79 79 80 63 64 66 73 73 73 71 72 69
83 82 82 81 80 80 80 79 78 79 75 78 76 61 61 65 75 74 72 72 72 72
84 83 82 81 80 81 80 79 81 79 80 72 78 69 59 64 76 73 73 73 70 66
84 83 82 81 68 70 78 78 77 77 77 77 71 66 58 57 73 75 73 72 67 74

GFSNIL_sfc_temp_006.txt.gz
Temp
83 81 80 80 79 78 78 79 82 80 80 78 78 78 77 75 75 74 72 72 71 70
81 81 80 81 81 79 81 80 78 80 79 78 77 77 76 75 74 75 73 73 71 71
80 81 81 81 79 79 79 80 79 79 78 77 77 77 75 74 74 72 73 72 71 71
82 82 80 80 79 80 80 80 79 78 77 76 76 76 75 74 73 71 72 72 70 71
81 81 81 80 80 81 79 79 78 77 76 75 76 75 74 73 74 72 71 71 70 70
80 79 79 79 80 80 79 78 78 77 76 75 75 75 74 74 73 73 73 72 70 70
78 78 79 79 79 79 78 77 77 76 76 75 76 76 75 74 72 70 73 72 70 70
80 79 79 78 79 79 78 78 78 76 76 76 77 80 75 75 72 71 71 71 70 70
80 79 78 78 78 78 78 78 77 76 76 76 79 69 71 71 72 72 70 69 69 68
80 79 78 79 78 78 78 77 76 75 75 75 74 66 67 68 70 70 70 68 67 66
79 78 78 77 77 77 77 75 74 74 75 74 75 64 62 65 69 69 69 69 68 66
80 78 78 77 76 76 74 75 73 75 74 72 73 62 59 60 67 68 68 69 68 67
80 78 78 76 75 75 77 74 76 75 74 72 73 58 58 61 60 62 65 67 67 62
80 79 79 78 75 73 72 71 71 72 73 73 71 68 60 58 62 65 65 66 67 68

GFSNIL_sfc_temp_009.txt.gz
Temp
71 70 69 69 68 68 67 68 70 70 71 71 71 70 69 68 67 67 66 66 65 64
71 71 69 70 70 68 69 72 71 72 71 70 70 69 68 66 66 66 66 65 65 63
71 71 70 70 69 69 69 70 70 70 70 70 69 69 68 66 67 66 65 65 64 64
71 71 70 70 70 69 69 70 70 70 69 69 68 68 67 67 67 66 64 65 64 64
71 71 70 69 70 70 69 70 70 69 68 68 69 68 67 67 68 66 64 64 63 64
71 71 70 70 70 70 70 69 69 69 68 68 68 68 68 66 66 65 65 64 63 63
71 70 70 70 70 70 69 69 68 68 68 68 68 68 68 67 65 66 66 65 64 64
72 70 70 70 70 70 69 69 69 68 68 68 69 73 68 69 69 67 64 64 64 64
72 70 69 69 69 68 69 69 68 68 68 68 72 69 70 67 64 64 63 62 62 62
74 71 70 70 69 68 68 68 68 67 67 67 66 66 66 67 63 62 61 61 61 61
70 70 70 68 68 68 67 67 66 66 67 66 67 64 63 63 61 61 62 62 61 61
71 70 68 67 67 67 67 66 66 67 66 65 64 60 59 60 60 59 59 61 62 62
70 69 68 68 68 68 67 67 65 65 65 64 61 60 59 59 58 56 58 59 61 61
70 70 70 69 67 67 66 61 61 63 64 64 63 59 58 57 57 58 57 57 62 57

GFSNIL_sfc_temp_012.txt.gz
Temp
68 67 66 67 65 64 64 66 67 67 68 68 68 67 66 65 65 65 64 64 63 62
67 67 67 67 67 66 66 68 68 69 68 68 68 67 66 64 65 65 64 64 63 62
68 67 67 67 67 66 66 67 67 68 68 67 67 67 65 64 64 63 63 63 63 62
68 68 67 66 67 67 66 67 67 67 67 67 67 67 65 64 65 64 63 63 62 62
68 68 67 66 67 67 66 66 67 67 66 66 66 65 65 64 65 64 63 63 62 62
68 68 66 66 67 67 67 67 66 66 65 66 66 65 65 65 65 64 63 63 61 61
70 70 68 67 67 67 67 66 65 65 66 66 66 66 66 65 63 63 66 64 62 62
71 71 68 68 70 67 66 66 66 66 65 66 66 70 66 65 65 63 63 63 63 62
69 71 69 70 69 66 66 65 65 65 65 65 69 68 66 66 63 63 62 61 61 61
68 70 69 70 68 67 65 65 65 65 65 65 65 64 63 65 61 61 60 59 59 60
71 70 71 71 68 67 65 65 64 64 64 63 65 63 61 63 61 60 59 59 59 59
71 71 70 68 66 66 64 63 63 64 64 62 63 60 61 60 59 58 57 58 59 59
73 72 69 67 66 65 65 66 63 62 62 62 62 58 58 58 57 55 55 57 58 58
70 70 71 69 65 66 63 60 61 62 63 63 61 60 56 55 56 56 55 54 54 53

GFSNIL_sfc_temp_015.txt.gz
Temp
65 65 64 63 63 63 63 64 65 65 66 66 67 66 65 63 63 63 62 62 61 61
65 66 64 64 64 64 63 66 66 66 66 66 66 66 65 63 63 63 62 62 62 60
66 68 67 65 65 65 65 66 65 65 66 66 66 65 64 63 63 62 62 62 61 61
65 66 65 65 65 65 64 65 65 65 65 65 65 65 63 63 63 62 61 61 61 61
65 65 66 65 66 65 65 64 65 65 65 65 65 64 63 63 63 63 62 62 61 61
66 67 68 67 66 66 65 65 66 65 64 64 65 64 64 63 63 62 62 62 61 61
67 67 69 69 67 66 65 65 64 64 65 65 65 65 64 63 63 62 63 62 61 61
67 67 70 69 69 68 67 67 66 65 65 64 65 67 64 64 63 62 62 62 61 61
67 66 68 68 68 68 65 67 65 64 64 64 67 66 65 65 62 62 61 60 60 60
67 67 67 69 68 67 68 66 66 65 64 64 64 63 63 65 61 60 59 58 58 58
67 66 67 70 69 68 67 65 66 65 63 63 64 61 61 63 61 59 59 58 58 57
68 67 67 67 67 67 66 64 64 63 61 62 62 59 59 59 59 58 57 56 57 57
68 69 67 68 66 66 65 66 63 61 62 61 63 60 57 57 57 56 55 55 56 58
65 65 65 65 65 64 63 61 61 61 62 62 61 61 56 55 56 55 55 54 52 53

GFSNIL_sfc_temp_018.txt.gz
Temp
69 68 67 66 65 66 67 68 68 68 68 68 68 68 68 67 67 66 66 66 65 65
68 66 66 66 66 66 66 68 68 68 68 68 68 68 68 67 67 67 66 66 66 65
68 68 66 65 65 65 66 67 67 67 68 68 68 68 67 66 67 66 66 67 65 65
68 68 67 67 67 66 66 67 67 67 67 67 67 67 66 66 67 66 65 66 65 65
68 68 66 66 67 67 67 67 67 67 67 67 68 67 66 67 68 66 65 66 65 65
66 66 66 66 66 66 66 66 67 67 67 67 67 67 67 66 66 66 65 66 65 65
66 65 65 66 66 67 66 66 66 67 67 67 67 67 67 67 66 66 66 66 65 65
66 67 66 66 66 67 66 67 67 67 67 67 67 69 67 67 66 66 66 66 66 66
67 66 66 65 65 66 68 67 67 67 67 67 69 66 65 67 67 66 65 65 66 65
66 65 65 65 65 66 67 69 68 67 67 67 67 63 63 65 67 66 65 64 63 63
65 65 66 66 65 67 68 68 67 66 67 66 66 61 60 63 66 66 65 63 62 62
66 66 66 66 65 66 66 66 65 66 66 65 66 59 59 61 64 63 63 62 61 61
68 67 66 66 66 66 66 66 65 63 63 62 64 59 57 60 62 61 61 60 60 58
68 67 67 65 65 65 64 64 62 62 62 62 62 63 57 56 59 61 60 59 60 58

GFSNIL_sfc_temp_021.txt.gz
Temp
81 82 78 80 82 80 82 82 80 79 79 78 78 78 76 78 78 76 76 75 74 77
81 80 80 79 76 80 78 81 79 79 77 77 77 77 77 79 77 76 76 76 75 75
80 79 80 77 72 76 78 78 78 77 78 77 77 77 76 77 77 75 77 77 74 74
80 78 73 77 71 71 73 74 76 75 76 77 77 77 75 75 76 74 75 75 74 74
76 71 76 77 75 71 71 72 73 73 75 76 77 77 75 75 76 74 74 75 74 74
71 75 72 71 71 70 71 70 71 72 73 74 76 75 75 75 75 74 73 75 75 75
73 73 74 72 69 67 67 68 69 70 71 73 74 75 75 75 74 74 76 76 76 76
73 74 73 72 70 67 67 71 71 70 71 73 74 77 75 75 75 75 75 77 76 76
73 73 73 73 72 70 67 68 70 69 70 73 76 69 67 72 76 76 75 75 76 76
73 73 73 74 71 71 69 70 71 71 71 73 73 66 65 66 76 76 76 75 74 73
73 73 74 73 71 71 71 71 73 73 73 73 75 64 62 64 73 73 75 74 74 73
74 73 72 71 71 72 70 72 73 74 73 73 74 59 59 61 65 64 66 71 71 70
74 73 72 72 71 72 71 71 76 74 73 69 72 58 57 60 62 62 62 64 64 60
74 73 73 71 71 70 70 72 72 72 71 70 70 63 56 56 60 61 60 63 70 71

GFSNIL_sfc_temp_024.txt.gz
Temp
86 89 89 88 91 91 91 90 86 83 85 85 84 83 82 83 83 82 81 80 80 83
86 86 89 88 87 90 88 90 86 85 82 83 83 83 81 83 82 81 81 81 80 80
87 87 87 85 84 86 85 85 83 83 83 82 81 81 80 83 82 80 82 83 80 79
88 88 84 85 85 84 82 79 79 80 81 80 80 81 79 80 81 80 79 80 79 78
88 87 84 83 81 82 80 79 76 75 75 76 80 81 80 79 82 79 78 79 79 78
87 85 82 81 82 79 79 79 72 74 74 76 79 79 79 79 78 78 79 80 79 79
85 83 84 83 79 80 80 78 75 74 76 76 78 78 80 79 79 79 81 80 80 81
85 83 82 83 81 81 80 79 77 73 75 77 78 82 79 80 78 78 79 80 81 82
84 81 82 81 79 78 79 76 76 76 77 78 81 72 69 76 80 79 79 79 80 81
83 80 80 81 79 78 76 78 78 76 77 78 79 66 66 69 79 79 77 76 75 75
82 80 80 79 78 77 77 77 76 77 77 78 79 65 64 66 75 74 73 69 69 67
82 80 79 78 78 78 77 76 75 76 76 75 77 62 61 65 74 71 66 66 67 67
83 81 79 77 77 77 78 74 78 76 77 71 78 58 58 66 72 69 65 64 64 61
82 79 77 77 77 77 76 74 75 76 75 76 74 74 56 57 70 73 75 64 63 68

GFSNIL_sfc_temp_027.txt.gz
Temp
88 90 91 90 93 93 94 94 87 86 84 85 85 84 83 84 84 83 82 81 81 83
88 88 90 89 89 93 92 94 88 86 85 84 84 84 83 81 83 82 82 81 81 81
89 88 89 91 89 89 90 90 88 85 83 83 81 82 80 81 82 81 83 83 82 81
90 90 89 90 89 88 89 87 85 83 83 82 79 81 79 80 82 81 80 80 79 78
90 90 89 88 89 88 86 85 84 83 82 82 82 80 78 78 83 80 79 78 78 79
90 89 88 88 88 88 85 83 83 82 81 81 79 79 79 79 79 80 80 80 79 80
89 88 89 89 87 86 84 82 81 81 81 80 79 81 79 81 80 80 80 81 81 81
90 89 89 87 86 84 84 82 82 81 80 80 81 84 79 82 80 79 79 81 82 82
90 88 86 86 86 83 83 82 82 81 79 79 83 73 71 77 80 80 79 79 80 78
89 86 84 85 84 81 81 81 80 80 79 80 81 66 68 70 81 81 80 77 77 73
88 85 82 83 83 81 81 79 78 80 79 79 80 64 64 68 79 79 80 79 77 74
88 85 83 80 81 81 80 77 79 80 79 77 76 63 62 67 79 78 77 78 72 74
88 85 83 81 81 79 79 77 75 75 77 70 74 62 59 66 75 76 79 77 74 63
86 84 84 80 81 77 74 73 74 73 73 74 73 74 57 57 75 78 77 78 73 70

GFSNIL_sfc_temp_030.txt.gz
Temp
83 86 86 85 86 86 86 86 82 83 82 81 80 80 78 77 77 76 76 75 75 74
84 83 85 85 84 87 84 86 83 82 81 81 80 78 78 77 76 76 76 76 76 75
85 84 85 85 84 84 85 84 82 81 81 80 79 79 78 76 78 76 76 76 75 74
85 86 84 86 85 84 84 83 80 80 80 80 79 78 76 76 76 75 74 75 75 74
85 85 85 84 86 86 83 82 80 80 79 79 78 78 76 75 77 76 74 74 74 74
85 85 84 84 84 85 84 82 82 80 78 78 78 77 76 76 76 76 74 75 74 74
85 85 85 85 84 85 84 82 80 79 78 78 78 78 77 77 76 75 76 76 75 75
86 85 85 84 84 84 84 82 80 79 78 78 78 80 76 77 76 74 75 75 76 76
86 85 85 84 84 83 83 81 79 78 77 77 80 73 71 75 76 76 74 74 75 76
86 84 84 84 83 82 80 80 78 77 77 76 76 69 68 71 76 75 75 74 74 75
86 85 84 83 82 81 81 78 77 77 76 76 77 64 65 68 73 72 74 74 75 73
87 84 83 81 81 80 78 77 76 77 76 75 76 62 62 65 70 69 71 73 74 74
86 84 82 81 80 81 80 77 77 76 75 71 73 61 60 63 68 67 70 72 72 64
85 83 83 80 79 78 77 76 74 73 73 74 72 72 58 58 69 70 69 69 69 72

GFSNIL_sfc_temp_033.txt.gz
Temp
80 78 79 77 76 78 79 78 76 76 77 77 74 72 71 69 70 70 68 69 67 68
80 80 79 77 78 77 77 79 77 77 77 76 73 72 70 69 69 69 69 68 68 68
81 81 80 76 78 77 78 77 78 78 77 75 73 72 70 69 70 69 69 69 68 68
81 81 80 80 78 76 79 77 77 78 75 74 73 73 71 69 69 69 68 69 68 67
81 81 80 81 81 82 78 77 78 77 75 75 73 73 71 70 72 70 68 68 67 67
80 81 81 80 81 81 80 77 77 76 75 74 74 73 73 72 69 69 70 70 68 67
81 81 82 82 81 78 80 79 76 76 76 75 74 74 72 71 69 68 69 71 70 69
82 82 82 81 80 81 79 80 77 75 74 74 74 75 71 71 70 69 69 71 74 73
82 81 81 80 80 79 80 79 76 74 73 72 76 70 70 72 71 70 71 71 70 71
82 81 80 80 80 78 79 78 75 74 73 70 73 68 67 70 71 71 71 71 72 71
82 81 80 80 79 79 80 75 74 74 74 70 70 65 64 68 72 68 69 71 69 68
82 81 80 80 79 78 76 76 74 71 70 70 71 64 62 64 67 66 66 68 69 69
83 82 80 80 78 76 75 74 72 71 72 70 73 62 61 62 66 65 65 67 68 66
83 81 80 78 78 76 73 72 71 71 72 73 74 67 58 58 67 65 65 66 66 66

GFSNIL_sfc_temp_036.txt.gz
Temp
78 78 77 74 75 76 77 77 75 75 75 73 72 70 69 67 67 67 66 66 65 65
79 78 77 74 76 75 76 76 76 76 75 74 72 70 68 67 67 67 66 66 65 65
79 80 78 76 76 76 77 77 75 76 75 74 72 71 68 67 67 66 66 67 65 64
79 79 80 78 77 77 77 77 76 76 76 74 72 70 69 67 68 66 66 67 66 66
80 79 79 79 80 78 78 75 77 77 76 74 73 71 70 68 70 67 66 66 65 66
79 79 79 79 80 78 78 74 75 76 75 74 73 72 71 70 68 68 67 67 66 66
79 79 79 80 79 80 80 75 75 75 75 75 74 73 72 71 68 68 68 68 68 70
80 80 80 79 79 79 79 79 76 75 74 73 73 74 71 72 70 69 67 67 69 72
80 79 79 79 78 78 77 78 74 74 73 71 75 70 68 72 71 69 69 68 66 72
80 78 78 79 78 76 77 76 72 72 72 71 74 67 67 69 70 68 69 67 66 68
79 79 79 78 77 76 77 76 73 72 72 71 72 65 64 67 71 68 67 67 67 68
80 79 78 77 77 77 77 76 74 72 72 71 71 63 63 64 69 65 65 66 67 68
81 79 78 78 78 78 77 75 73 72 73 70 72 61 60 62 66 66 66 64 67 63
81 80 80 79 79 76 76 73 72 71 70 69 68 66 59 58 67 66 65 65 65 66

GFSNIL_sfc_temp_039.txt.gz
Temp
78 77 77 75 75 73 72 74 76 74 74 71 70 69 67 66 66 65 64 65 63 63
77 77 76 74 74 74 74 76 73 74 73 71 70 69 67 66 65 65 64 64 64 63
78 78 77 75 73 73 74 74 73 73 73 72 70 69 67 66 65 65 64 64 63 63
78 78 79 76 75 75 75 73 73 74 74 72 71 69 68 66 66 65 65 65 64 64
79 78 78 77 76 76 76 75 75 74 74 73 72 71 70 68 69 66 64 64 64 64
78 77 78 79 79 75 77 76 75 75 75 74 72 71 71 70 69 67 67 66 65 65
78 78 78 79 79 78 76 75 75 75 75 75 74 73 72 71 69 68 68 67 67 65
79 79 79 78 78 79 78 76 75 74 74 74 74 74 72 71 70 69 68 67 68 66
79 78 78 78 77 77 77 77 74 73 73 72 74 70 68 72 71 70 68 67 66 67
79 78 77 78 77 76 76 77 74 74 73 72 73 66 66 69 72 70 67 66 65 65
78 78 78 77 77 77 76 76 75 73 73 72 71 64 64 67 71 68 67 68 67 66
78 78 77 76 76 77 78 77 76 73 71 71 70 62 62 64 69 67 67 67 66 66
79 78 77 77 77 78 78 79 76 73 72 69 71 60 59 65 68 67 66 65 64 63
80 79 79 78 79 77 77 76 75 73 72 72 71 62 57 60 67 67 66 65 64 64

GFSNIL_sfc_temp_042.txt.gz
Temp
76 76 77 75 75 75 75 75 75 75 75 74 73 73 70 70 69 69 69 67 68 69
76 76 76 75 74 75 75 76 75 75 75 74 73 72 70 70 69 69 68 68 68 69
77 76 77 76 73 74 74 75 74 75 75 73 73 71 70 69 69 68 68 69 67 67
77 77 77 77 75 75 74 74 74 74 74 74 72 71 70 69 69 68 68 68 67 67
77 77 76 76 76 75 74 74 74 74 74 74 73 72 71 70 71 69 68 68 67 68
77 76 76 77 77 75 75 74 74 74 74 74 74 72 72 72 71 70 70 69 68 68
76 76 77 77 77 76 76 75 74 74 74 74 74 74 73 72 71 71 71 70 70 69
77 77 77 77 77 77 76 76 75 74 75 75 75 76 73 73 72 71 71 70 69 69
77 76 76 76 76 76 76 76 75 75 75 74 77 71 69 73 73 72 71 69 68 69
76 75 76 76 75 75 75 75 75 75 75 74 75 67 67 69 74 71 70 69 67 68
76 76 76 76 75 75 76 75 75 74 75 74 75 65 64 68 73 70 70 69 68 68
77 76 76 75 75 76 76 76 76 76 74 73 73 62 62 65 71 69 69 69 69 68
77 76 76 76 76 77 77 77 77 75 75 71 74 60 60 64 70 69 68 68 68 64
78 77 77 77 77 77 77 77 76 75 74 73 72 69 58 60 70 69 68 67 66 66

GFSNIL_sfc_temp_045.txt.gz
Temp
81 84 84 84 86 86 87 87 86 84 85 84 84 83 81 82 82 80 80 78 79 83
81 81 83 83 83 86 85 88 86 85 84 84 84 83 81 83 79 79 79 79 78 80
82 82 83 83 82 83 85 84 86 84 84 84 83 82 80 82 80 78 80 81 77 77
82 83 83 84 83 83 84 83 84 84 84 83 82 82 80 80 81 78 78 78 77 77
82 83 83 83 84 84 82 83 83 84 84 83 83 82 80 80 81 78 78 78 77 77
82 82 81 82 83 84 82 83 83 83 83 83 83 82 81 81 80 80 80 79 78 78
80 81 82 82 82 83 82 82 82 82 83 83 84 83 83 81 80 80 80 80 80 79
82 82 82 82 82 83 83 82 82 82 82 83 84 86 82 82 81 79 79 80 80 80
82 81 81 81 82 82 82 82 82 81 82 82 86 75 71 79 82 80 80 79 79 79
82 80 80 82 81 80 81 82 81 81 81 81 82 69 68 70 84 82 80 80 80 79
82 80 81 81 80 80 82 81 81 81 81 81 82 67 66 69 81 82 81 80 80 78
82 81 81 80 79 80 81 81 81 82 81 80 81 64 63 68 80 82 80 80 79 77
82 81 80 80 80 81 81 82 84 83 82 77 81 64 61 67 82 80 80 77 77 66
83 81 81 81 81 81 81 82 81 81 82 82 78 78 59 60 79 81 76 73 71 71

GFSNIL_sfc_temp_048.txt.gz
Temp
86 89 90 90 93 94 94 95 93 90 90 89 90 89 88 89 88 87 86 84 85 90
86 86 90 89 90 92 92 96 93 91 89 90 89 89 87 89 87 87 85 85 84 86
87 87 88 89 88 90 92 91 93 90 90 89 89 88 87 89 88 85 87 88 84 83
89 89 88 89 89 89 89 90 89 90 89 89 89 88 86 86 88 84 84 85 84 82
88 89 89 88 89 90 88 89 89 89 89 89 89 88 86 86 88 85 83 84 83 82
88 88 88 88 88 89 88 88 89 89 88 88 89 89 88 87 87 87 86 85 83 83
87 87 89 88 87 88 88 88 88 88 88 89 89 90 90 88 87 87 87 87 86 85
88 88 88 88 88 88 88 88 88 88 89 89 91 92 89 89 88 86 86 87 86 86
88 88 87 87 87 87 87 88 87 87 88 88 92 81 74 84 89 88 86 85 86 86
88 87 86 87 87 86 86 87 86 87 87 87 88 73 71 73 89 89 87 86 86 86
88 87 87 86 86 85 87 86 86 86 87 87 89 70 68 71 86 87 88 87 86 86
89 87 86 85 85 86 86 86 86 87 86 86 87 66 64 69 86 86 87 88 87 86
89 87 86 86 85 87 87 86 90 88 88 80 86 69 61 67 86 82 83 84 82 71
90 87 87 87 87 86 86 86 85 84 87 85 83 82 60 59 75 77 74 85 85 86

GFSNIL_sfc_temp_051.txt.gz
Temp
87 91 90 91 94 95 96 98 96 91 91 90 91 90 90 91 89 88 87 86 85 91
86 87 90 88 90 94 94 98 97 94 91 90 90 91 89 90 88 89 86 86 85 87
88 87 89 90 89 90 92 93 95 93 92 90 90 90 89 90 89 87 89 89 86 85
89 90 89 90 91 90 91 92 91 92 91 90 89 90 88 88 90 87 86 87 87 84
90 90 90 89 91 92 89 91 91 90 91 90 90 89 88 87 90 89 86 85 85 85
90 90 89 89 90 91 90 90 90 90 89 89 89 89 90 89 88 89 89 87 85 85
89 89 91 90 90 90 90 89 89 89 89 90 90 90 91 90 88 88 90 89 87 86
90 90 90 89 89 90 90 90 89 89 90 90 91 93 89 90 89 87 88 89 89 88
91 89 89 89 89 89 89 89 89 89 89 89 93 81 75 84 90 89 87 87 88 88
91 89 88 89 89 88 87 89 87 88 89 88 89 73 71 74 90 90 88 86 87 88
91 90 89 88 88 87 89 87 87 87 88 88 90 70 67 71 88 88 88 87 85 85
92 89 89 87 87 88 87 88 88 89 88 87 88 67 65 70 88 87 85 87 86 84
92 90 88 88 87 88 89 88 91 89 89 82 87 67 63 69 86 84 88 85 84 72
91 89 89 88 88 88 87 88 87 87 89 88 85 82 62 62 81 84 86 88 87 88

GFSNIL_sfc_temp_054.txt.gz
Temp
82 85 84 84 87 88 89 89 86 85 85 85 85 84 84 84 83 82 81 82 80 79
82 82 85 83 84 87 86 91 90 86 85 85 85 84 83 84 82 83 81 80 80 79
84 83 84 85 83 84 86 89 90 85 85 85 84 84 83 83 84 82 82 82 80 79
85 85 84 85 85 85 85 85 86 87 85 84 84 84 83 83 83 82 81 81 80 79
85 85 85 84 86 86 85 86 86 86 85 84 84 84 83 83 84 83 81 81 80 80
85 85 85 85 84 86 85 85 86 86 84 84 84 83 84 84 83 84 83 82 81 80
85 85 86 85 85 85 85 85 85 85 85 85 85 85 85 84 83 83 84 84 83 81
86 86 86 85 85 85 85 86 85 85 85 85 86 88 84 85 84 83 83 84 84 83
87 86 85 85 85 85 85 85 85 84 85 84 89 79 75 82 85 84 83 82 83 83
87 85 85 85 85 84 84 85 84 84 84 84 85 73 72 74 85 84 84 82 82 83
88 86 85 85 84 84 85 84 84 84 84 84 85 72 69 71 83 84 83 83 83 82
89 87 85 84 84 85 84 84 84 85 84 83 84 69 67 69 81 83 82 84 83 83
89 87 86 85 84 85 85 85 87 85 85 80 84 70 64 69 85 82 83 83 82 72
87 87 86 85 85 85 84 85 84 84 85 85 83 82 61 61 83 84 83 83 84 85

GFSNIL_sfc_temp_057.txt.gz
Temp
78 78 80 75 77 78 77 81 83 82 80 80 79 78 77 76 76 75 74 75 73 71
80 78 79 80 75 76 78 81 81 82 80 79 79 78 76 76 76 75 75 74 74 72
80 80 78 78 75 79 78 79 80 81 81 80 79 80 77 76 76 75 74 74 73 73
80 80 80 78 79 78 76 79 78 78 79 81 80 78 78 75 76 75 75 75 73 73
81 81 79 79 79 79 79 76 79 79 80 80 80 79 77 76 80 77 75 75 75 74
80 80 80 80 81 80 80 81 80 80 80 81 80 79 79 79 78 77 77 78 77 76
81 81 81 82 80 81 81 81 81 82 82 80 81 81 80 80 79 79 79 78 79 79
82 82 82 82 81 81 81 81 82 82 81 81 81 83 80 81 80 79 79 80 79 80
83 82 82 82 82 81 81 82 82 80 82 81 83 76 73 79 81 81 80 79 80 81
84 82 82 82 82 81 81 82 81 82 81 81 82 72 70 72 83 82 81 80 81 80
84 82 82 82 81 82 82 82 82 81 82 82 82 71 68 70 82 82 82 82 82 81
84 83 82 81 82 82 83 82 82 82 81 81 82 67 66 68 80 82 82 82 82 82
84 83 82 82 82 83 83 83 83 83 83 78 82 68 64 66 81 80 81 83 83 71
82 83 84 84 84 83 82 82 82 82 83 83 80 80 62 61 80 82 82 81 82 83

GFSNIL_sfc_temp_060.txt.gz
Temp
77 77 77 75 72 74 75 77 78 78 78 77 77 75 74 73 74 73 72 72 70 69
76 78 78 73 74 75 73 77 77 79 78 78 77 76 74 73 73 74 73 71 72 70
79 77 76 77 73 73 74 76 77 77 79 79 77 77 74 74 74 74 73 73 71 71
79 79 78 75 77 77 75 74 75 77 78 78 78 76 75 74 75 74 74 73 72 72
79 78 77 77 76 77 75 75 78 75 76 77 78 76 77 75 77 75 73 75 73 74
78 78 77 77 78 75 77 77 76 77 76 76 77 77 77 77 77 75 76 75 75 75
78 78 78 78 78 78 77 77 77 76 78 78 78 79 79 78 77 77 77 77 77 76
79 79 79 78 77 78 78 79 79 78 77 78 79 80 79 79 78 77 77 78 77 77
79 79 79 79 79 77 77 78 78 78 79 76 80 74 72 78 79 79 78 77 78 78
80 79 78 79 79 78 77 78 78 78 79 79 79 70 69 71 81 79 79 78 79 78
80 79 79 79 79 79 79 78 78 78 79 78 80 69 67 69 78 80 80 79 79 79
81 80 79 78 79 80 80 79 79 80 79 79 80 66 65 66 76 78 79 81 80 80
82 81 80 80 80 81 81 81 81 80 81 75 79 67 63 66 79 78 79 80 81 70
84 83 82 82 82 81 81 81 80 80 81 80 78 78 61 61 78 79 79 79 79 81

GFSNIL_sfc_temp_063.txt.gz
Temp
75 75 75 73 71 71 72 75 74 76 75 75 74 74 73 72 72 72 71 71 69 68
76 75 75 72 73 73 72 75 75 75 76 75 75 74 73 73 72 72 71 70 70 69
77 76 77 73 72 71 72 73 75 73 75 74 75 75 74 73 72 72 72 72 70 70
77 76 77 75 74 74 73 73 74 73 73 74 75 75 74 73 74 73 73 72 71 71
77 76 75 75 75 75 74 73 73 72 73 74 76 75 75 75 76 74 73 73 72 72
77 76 75 75 76 74 75 75 72 74 73 73 75 75 75 76 76 75 75 75 73 74
76 76 77 76 76 75 75 75 74 74 76 75 75 76 76 76 76 75 75 75 75 75
77 77 77 76 76 76 75 77 77 76 75 76 77 78 76 76 76 75 75 75 75 76
77 77 76 76 76 75 75 75 76 75 76 74 78 73 71 76 77 76 76 75 75 76
77 75 75 76 76 74 74 75 74 75 76 76 77 69 69 70 79 78 77 76 77 77
77 76 76 76 76 76 75 74 74 75 75 76 77 67 66 68 76 78 78 77 77 77
78 77 76 75 76 77 77 76 75 76 76 75 77 65 64 66 75 76 77 78 78 77
79 78 77 77 77 78 78 78 78 77 77 73 77 66 62 64 76 75 76 77 78 69
79 79 79 78 79 78 78 78 77 77 78 78 75 76 61 60 76 77 76 76 77 79

GFSNIL_sfc_temp_069.txt.gz
Temp
81 84 84 83 86 86 87 87 86 85 86 85 85 85 84 85 86 85 84 83 83 87
81 81 83 83 83 86 85 87 85 86 85 85 85 85 85 86 84 84 84 84 83 85
82 81 82 82 81 83 84 83 85 84 85 85 85 85 84 85 85 83 85 86 83 83
82 82 82 83 82 83 83 83 83 84 84 85 85 85 83 83 85 83 83 84 83 83
82 82 82 82 83 83 82 83 83 83 83 84 85 85 83 83 86 83 83 84 83 83
82 82 82 82 83 83 82 83 83 83 82 84 85 84 84 84 85 85 85 85 84 84
81 82 83 82 82 82 82 82 82 82 83 84 85 85 85 85 84 84 86 86 85 85
82 82 82 82 82 82 82 83 83 82 83 84 85 88 84 85 85 84 84 85 85 86
82 81 81 81 81 81 81 81 82 82 82 82 86 76 72 79 85 85 84 83 85 85
81 80 80 81 81 80 80 82 81 81 82 82 83 70 69 70 84 85 85 84 84 86
81 80 81 80 80 80 81 80 80 81 82 82 83 68 66 68 81 83 84 85 84 84
81 80 80 80 80 81 80 80 80 81 81 81 82 65 64 67 82 82 82 84 84 84
82 81 80 80 80 81 82 82 84 82 82 76 81 67 62 67 83 82 84 83 83 70
82 81 81 81 81 81 81 83 81 82 83 82 80 80 61 59 80 84 84 85 86 87

GFSNIL_sfc_temp_072.txt.gz
Temp
86 89 90 89 93 93 94 95 93 91 91 91 91 91 90 89 91 89 89 87 88 93
86 86 90 89 90 92 92 95 92 91 90 91 91 90 90 91 89 89 88 89 88 90
87 87 88 89 87 89 91 90 92 90 90 90 90 90 88 91 90 88 91 92 89 88
88 89 88 89 88 88 88 89 88 89 89 90 90 90 88 88 90 89 88 89 89 88
88 89 89 88 89 89 87 88 88 89 89 89 90 90 88 88 91 89 88 88 88 88
88 88 88 88 88 89 88 88 89 88 88 88 89 90 90 89 89 90 90 90 89 89
87 88 89 89 88 88 88 87 87 88 88 89 90 90 91 91 89 89 91 91 91 91
88 88 88 88 88 88 88 88 88 88 88 89 91 94 90 90 90 89 89 90 91 91
88 87 87 87 88 87 87 87 87 87 88 88 93 79 74 83 90 90 89 88 90 91
87 86 86 87 87 86 86 87 86 86 87 87 89 72 70 72 90 90 90 89 89 91
87 86 86 86 86 85 87 86 86 86 87 87 89 70 67 69 86 88 88 89 90 89
88 86 86 85 85 86 86 86 86 87 86 86 87 67 66 70 87 87 86 88 89 89
88 87 86 86 85 86 86 86 90 88 88 81 87 69 62 69 89 87 90 89 87 72
88 86 87 86 86 86 86 88 86 88 88 87 85 84 61 59 84 90 91 92 94 94

GFSNIL_sfc_temp_075.txt.gz
Temp
87 91 91 91 94 95 97 97 93 91 92 91 91 91 90 90 91 90 89 88 88 92
86 87 90 90 90 94 94 98 96 94 91 91 91 91 90 91 88 87 88 89 88 90
87 87 89 91 90 91 93 93 94 92 92 91 91 91 90 91 91 88 89 92 88 89
89 89 89 90 91 90 91 92 91 91 90 90 90 90 89 89 92 89 89 89 90 89
89 89 89 89 91 91 89 90 90 90 90 90 91 90 89 88 92 89 89 89 89 89
89 89 89 89 90 91 90 89 90 89 89 89 90 90 90 90 90 91 91 91 90 90
88 89 90 90 89 90 90 89 89 89 89 90 90 91 91 91 90 90 92 92 92 92
89 89 89 89 89 90 90 90 89 89 90 90 91 94 90 91 91 89 90 91 92 92
89 88 88 88 89 89 89 89 89 89 89 89 94 81 75 85 91 91 89 89 90 91
89 87 87 88 88 87 87 89 88 88 89 89 90 73 71 74 91 91 89 89 89 91
90 88 88 88 87 87 88 87 87 88 88 89 90 71 68 71 88 89 89 90 90 89
91 88 88 87 87 88 88 88 88 89 87 87 88 68 66 71 89 89 87 89 89 89
91 89 88 87 87 88 89 89 92 90 89 82 88 69 64 70 90 88 90 88 87 73
91 89 89 88 88 88 88 89 88 89 90 89 87 86 62 61 86 91 92 93 94 96

GFSNIL_sfc_temp_078.txt.gz
Temp
83 85 85 86 87 87 88 89 85 85 86 86 86 85 82 83 84 84 83 83 84 82
82 83 84 85 86 87 86 89 86 86 86 86 85 84 84 83 83 84 82 83 83 82
81 83 83 83 84 85 88 89 86 86 85 86 86 86 84 83 84 82 82 84 82 82
82 83 83 85 85 85 85 87 87 87 86 85 85 85 84 83 84 82 82 83 83 81
83 82 83 82 86 86 85 87 87 85 86 85 85 84 84 83 84 84 82 83 83 84
84 83 82 82 84 86 84 84 86 85 84 84 84 84 84 84 83 84 84 84 84 83
83 83 84 84 83 84 85 84 84 84 84 85 85 85 85 85 84 84 85 85 85 85
84 84 84 84 84 84 84 85 84 84 84 85 86 89 84 84 84 83 84 85 85 86
84 84 84 84 84 84 84 84 84 84 84 84 89 79 75 81 84 84 83 82 83 84
85 84 83 84 84 83 83 84 84 83 84 84 84 74 72 74 85 84 83 82 82 85
85 84 84 83 83 83 84 83 83 83 84 84 85 72 69 71 82 83 83 83 83 82
86 85 84 82 82 83 84 84 83 84 83 83 84 69 68 69 80 83 82 83 83 83
88 86 84 83 83 84 84 85 87 85 85 80 84 69 65 69 85 82 84 82 81 72
88 85 85 84 84 84 84 85 84 84 85 85 83 82 63 61 82 84 84 84 85 86

GFSNIL_sfc_temp_081.txt.gz
Temp
75 77 75 77 77 80 82 81 79 78 79 78 78 78 77 76 76 76 76 76 75 75
74 76 76 77 78 78 80 81 80 80 79 78 78 78 76 75 75 76 76 75 75 75
77 75 76 77 77 78 79 80 81 81 79 78 78 78 76 76 76 76 76 77 75 75
78 76 75 76 77 77 78 78 80 79 78 78 78 78 76 76 76 76 75 76 76 76
79 78 79 75 75 77 78 77 79 81 80 79 78 77 77 76 79 77 76 76 75 76
79 79 78 79 75 79 77 79 79 79 79 78 77 77 77 77 76 76 76 77 77 77
79 80 80 81 79 76 80 76 77 77 78 77 78 78 77 77 76 76 77 78 77 77
80 81 80 80 79 81 76 82 80 76 76 78 79 82 77 78 76 76 76 77 78 78
81 80 80 80 80 79 81 76 80 80 79 78 83 76 73 78 77 77 78 77 76 78
81 79 80 80 80 79 80 82 80 79 80 79 80 72 71 73 82 79 77 78 79 79
81 80 80 81 80 80 80 80 81 81 80 80 81 71 69 71 79 79 80 79 77 79
82 80 80 79 81 81 81 81 81 82 80 80 81 68 67 68 72 78 78 79 80 79
83 82 81 81 81 82 82 82 82 82 82 77 80 69 65 67 80 75 77 77 76 69
84 83 83 82 82 82 81 82 81 81 82 81 79 80 64 61 80 81 79 80 80 80

GFSNIL_sfc_temp_084.txt.gz
Temp
73 75 73 73 77 79 78 77 76 76 76 75 75 76 75 74 74 75 74 74 73 72
72 72 74 74 74 79 80 78 76 77 76 76 75 75 74 73 74 74 74 73 73 72
76 72 73 74 74 75 77 76 76 76 77 76 76 75 74 73 74 73 73 74 73 73
77 73 72 75 76 75 75 76 76 77 77 77 75 74 73 73 74 74 73 73 73 74
77 77 72 73 75 75 75 75 77 76 78 78 76 75 73 73 76 74 73 74 73 74
77 77 78 76 72 73 75 75 75 76 77 77 76 75 74 74 74 74 74 75 74 74
77 78 79 79 75 73 74 74 76 76 77 78 78 77 76 74 73 73 74 75 75 75
78 78 78 79 78 76 73 76 74 77 76 77 78 80 75 75 74 73 73 74 75 75
78 77 77 77 78 76 77 74 76 74 76 75 80 73 71 75 74 75 74 74 73 74
74 76 77 77 77 77 77 79 76 77 78 76 77 70 70 71 77 75 75 76 76 75
75 76 76 77 76 77 77 78 78 76 78 78 79 69 68 70 76 77 76 76 76 76
75 75 75 77 77 78 78 78 78 79 78 76 78 66 66 67 75 76 76 77 76 76
67 75 76 78 79 79 80 79 80 79 80 76 79 67 64 66 78 74 75 76 76 68
69 75 78 79 80 80 80 80 79 78 79 80 76 78 62 61 77 78 77 76 77 77

GFSNIL_sfc_temp_087.txt.gz
Temp
71 72 72 71 72 74 75 76 75 74 74 74 74 74 73 73 73 73 72 72 72 71
71 70 72 72 72 74 74 77 75 74 74 74 74 73 73 72 72 73 72 72 71 70
74 72 72 72 72 72 74 74 75 74 74 74 74 74 72 72 72 72 72 72 72 71
75 70 70 71 73 73 73 73 74 74 74 74 74 73 72 72 72 72 72 72 72 72
76 74 71 71 72 73 74 73 74 74 74 74 75 73 72 72 74 72 72 72 72 72
76 76 74 73 71 72 74 74 73 74 73 74 75 74 73 73 72 72 72 73 73 73
76 76 77 77 72 72 73 74 73 73 74 74 74 75 75 74 72 72 73 73 73 73
76 77 77 77 77 73 73 74 75 75 73 74 75 77 73 74 73 72 72 72 72 73
76 76 75 75 77 76 74 75 72 74 76 74 78 72 70 74 74 72 72 72 72 73
70 73 74 75 75 76 76 75 74 74 74 75 76 69 69 70 77 74 73 72 72 73
71 71 72 74 74 75 77 76 76 75 75 75 76 67 66 69 75 74 74 74 73 73
69 70 72 72 75 76 76 76 76 77 76 76 77 65 65 66 72 74 74 74 74 74
67 66 69 72 72 74 76 77 77 76 77 74 77 66 63 65 77 75 75 75 73 67
66 67 67 68 72 72 72 74 76 76 77 77 75 76 61 61 76 77 77 74 76 75

GFSNIL_sfc_temp_090.txt.gz
Temp
71 73 73 73 73 74 75 76 76 75 75 76 77 77 76 76 76 76 76 76 76 75
70 71 73 73 73 74 75 77 77 76 75 76 77 75 76 76 76 76 76 76 76 76
72 71 72 73 73 73 75 76 76 76 76 75 76 76 75 75 76 75 76 76 75 75
73 71 71 73 74 74 75 75 75 75 76 76 76 76 75 75 75 75 75 76 75 75
74 73 72 72 73 74 74 74 75 75 75 76 76 76 76 76 77 75 75 76 75 76
73 73 73 73 72 72 74 74 75 75 75 75 76 76 76 76 76 76 76 76 76 77
73 73 74 74 73 72 73 74 74 75 75 76 76 77 77 76 76 76 76 77 77 77
74 74 74 73 73 73 73 74 75 75 76 76 76 78 76 76 76 76 76 76 77 77
74 73 73 73 73 72 73 73 73 73 75 75 78 71 69 74 77 76 76 76 76 77
71 73 73 73 72 72 72 74 73 74 74 75 76 68 68 70 77 77 76 76 76 77
72 71 72 73 71 71 73 73 73 73 74 75 77 67 66 68 76 76 76 77 77 76
68 71 71 71 72 73 73 73 73 74 73 74 75 64 64 67 76 76 76 76 77 77
64 66 68 71 71 71 74 74 76 75 75 71 75 65 62 65 78 75 76 77 76 66
63 65 68 68 69 71 72 73 74 74 75 74 72 73 61 60 76 78 78 77 78 78

GFSNIL_sfc_temp_093.txt.gz
Temp
81 84 86 85 87 88 88 88 87 85 85 85 84 85 84 86 87 85 86 84 85 89
81 81 84 84 84 87 86 88 86 86 85 85 84 84 84 86 84 84 84 85 84 86
81 82 82 83 83 84 85 85 86 86 86 85 85 85 83 85 85 83 86 87 83 84
82 82 82 83 84 84 85 84 84 85 85 85 85 85 82 83 84 83 84 84 83 83
82 82 82 82 83 84 84 84 84 84 84 84 85 85 83 84 86 83 83 84 83 84
81 81 82 82 82 83 83 84 85 84 83 84 84 85 85 85 85 85 85 85 84 85
80 81 82 83 82 82 82 82 83 83 84 84 85 85 86 85 85 85 86 86 86 86
82 82 82 81 82 82 82 82 83 83 84 85 86 88 85 85 85 84 84 85 86 86
81 81 80 81 81 81 81 81 82 82 83 83 87 76 71 80 86 85 84 84 85 85
78 78 80 80 80 80 80 81 80 81 82 82 84 69 68 70 86 86 85 84 85 87
67 75 78 79 79 79 80 80 80 80 81 81 84 68 66 68 83 85 85 85 85 85
64 66 68 74 77 78 78 79 79 80 80 80 81 65 65 68 84 85 84 85 85 85
64 64 65 67 69 72 76 76 80 80 81 76 81 67 62 67 85 83 85 85 84 69
64 63 64 66 68 68 71 73 76 77 79 80 79 79 61 60 81 85 85 86 87 88

GFSNIL_sfc_temp_096.txt.gz
Temp
86 89 91 90 94 93 95 95 91 90 89 90 90 90 89 91 92 90 90 88 89 95
86 86 90 89 90 93 93 96 92 91 90 90 90 89 89 92 89 90 89 90 88 91
88 87 88 89 88 90 92 92 92 90 91 90 89 89 88 90 89 88 91 92 89 88
87 89 88 89 89 89 90 90 90 90 91 90 90 89 88 88 90 88 88 89 88 88
85 86 89 88 89 90 88 89 89 90 89 90 91 90 88 88 91 88 88 89 88 88
85 86 84 88 88 89 88 89 90 89 89 89 90 90 90 89 89 90 89 89 89 89
85 85 87 85 87 88 88 88 88 89 89 89 90 90 91 91 89 90 91 91 90 90
85 81 84 85 85 88 88 88 88 88 88 89 91 94 90 91 91 89 89 91 91 91
81 83 84 85 86 86 87 87 87 87 87 88 93 79 73 83 91 91 89 89 90 90
75 78 80 83 84 84 85 86 86 86 87 87 88 73 70 73 90 91 90 89 90 91
70 70 73 77 79 80 83 84 84 85 86 86 88 71 67 70 87 88 90 90 90 89
66 65 68 71 73 72 78 81 81 85 84 84 86 66 66 70 87 88 87 90 90 90
66 65 64 65 67 71 72 77 82 82 85 79 85 69 63 69 88 86 90 89 88 73
68 65 65 65 66 66 69 71 72 75 81 82 82 83 61 60 83 89 90 91 93 94

GFSNIL_sfc_temp_099.txt.gz
Temp
88 91 91 91 93 90 79 91 90 90 90 91 91 91 91 91 91 91 91 90 89 93
88 88 91 92 91 95 95 87 92 92 91 92 91 91 90 89 90 91 89 90 89 91
89 89 89 91 89 92 93 94 77 92 91 91 91 90 89 91 91 89 91 93 91 89
90 90 89 90 90 90 91 93 91 92 92 91 90 90 89 88 90 89 89 89 90 89
90 89 91 89 91 91 89 91 91 91 90 91 91 91 89 88 92 89 89 89 89 89
90 89 89 90 90 91 90 90 91 90 90 90 90 91 91 90 89 91 90 90 90 90
87 89 89 89 90 89 90 89 89 90 90 90 91 91 92 92 90 90 91 92 91 91
83 88 88 88 89 89 89 89 89 89 90 90 92 95 91 92 92 90 90 92 92 93
78 82 83 86 86 86 88 89 89 88 89 89 93 81 75 82 92 92 91 90 91 92
69 71 76 82 84 85 82 82 84 87 88 88 89 75 70 73 91 91 91 89 91 92
67 67 70 71 79 80 81 83 81 82 84 87 89 72 69 70 87 89 89 89 90 89
70 69 68 70 69 73 77 78 80 82 83 82 87 68 66 70 88 88 86 89 89 90
76 68 68 68 67 70 73 77 77 80 80 77 83 71 63 69 88 86 89 88 86 75
76 74 74 70 71 70 71 72 73 73 76 79 80 81 62 61 83 86 88 91 92 94

GFSNIL_sfc_temp_102.txt.gz
Temp
84 80 81 84 81 77 76 75 82 84 85 85 85 85 85 84 84 85 84 84 84 83
85 85 87 88 87 87 75 80 85 85 85 86 85 86 84 84 84 84 84 84 84 83
85 85 86 87 87 88 81 74 75 73 84 87 86 87 84 82 84 83 84 84 83 83
86 86 86 86 88 86 88 77 72 72 74 85 86 86 84 82 84 83 82 84 83 84
85 86 86 86 87 87 86 87 80 76 82 81 85 84 83 83 85 82 82 84 83 84
84 85 85 85 86 87 86 86 88 87 84 84 83 84 84 84 84 84 84 85 83 83
81 82 83 84 84 85 85 85 85 86 85 85 85 84 84 83 83 84 86 85 85 85
72 77 82 83 83 84 85 86 85 85 86 86 87 90 85 86 84 82 83 85 86 86
70 70 71 75 79 82 83 84 85 84 84 84 89 80 75 81 85 84 82 82 84 85
68 69 68 70 71 77 79 80 81 82 82 83 84 75 71 72 82 84 84 82 82 85
68 68 67 67 68 70 72 76 77 80 81 81 84 72 70 71 81 82 82 83 83 83
72 68 67 67 66 67 68 70 74 77 78 79 80 70 65 68 82 83 81 82 83 83
72 73 71 70 69 69 69 70 71 73 77 75 79 69 65 66 80 81 83 82 81 73
71 70 73 74 73 70 69 70 71 72 75 76 76 77 63 60 75 77 79 81 84 86

GFSNIL_sfc_temp_105.txt.gz
Temp
73 71 73 73 74 72 72 73 75 77 78 77 78 78 78 77 76 77 76 77 77 76
74 73 74 74 76 72 73 76 76 77 77 77 78 78 77 76 76 76 76 76 76 76
76 76 76 77 76 73 75 73 73 74 76 77 78 78 77 76 77 76 77 77 75 75
76 76 77 76 75 76 74 73 73 73 74 74 78 79 76 76 77 76 75 76 77 77
75 76 76 76 78 76 73 72 72 72 73 74 76 77 77 76 79 76 76 77 76 77
74 76 75 77 78 79 78 76 74 73 75 75 76 77 77 77 77 77 77 77 76 77
69 72 74 76 77 77 78 78 77 77 78 78 78 77 77 77 77 77 78 79 79 78
68 69 70 72 74 77 77 77 78 77 77 78 79 83 78 78 76 76 77 78 79 79
68 68 68 69 68 72 75 76 76 76 75 75 80 77 73 77 77 76 76 77 78 78
66 66 67 68 68 68 68 72 73 75 76 76 77 73 70 71 75 76 76 76 77 79
65 65 66 66 66 67 68 69 69 72 74 75 77 71 68 67 72 75 76 76 76 76
67 66 64 63 64 66 67 67 68 69 69 70 74 68 64 65 70 73 75 76 76 76
64 64 63 65 66 64 66 67 67 67 69 68 70 66 63 63 70 74 71 76 76 69
62 62 63 63 65 67 65 66 66 68 68 70 70 70 64 60 67 71 71 71 73 76

GFSNIL_sfc_temp_108.txt.gz
Temp
72 71 73 73 72 72 72 72 74 75 76 76 76 76 75 74 74 74 74 75 74 74
72 72 73 73 73 73 72 74 75 75 75 76 76 76 75 74 74 74 74 74 73 74
72 72 72 71 72 72 73 74 74 74 75 75 76 76 75 73 74 74 74 74 74 73
72 74 73 73 73 74 73 72 72 74 73 74 75 75 74 73 75 74 73 74 74 74
72 73 73 74 73 73 73 72 73 72 71 72 74 75 74 74 77 75 74 75 74 74
70 72 74 73 74 73 73 72 72 71 70 71 73 74 75 75 75 75 75 75 74 75
68 69 70 72 73 73 74 73 72 71 73 73 75 75 75 75 74 74 75 75 75 76
68 68 69 69 69 72 73 74 74 73 74 74 76 79 75 75 74 74 74 75 76 76
67 67 68 68 69 69 69 72 72 73 74 74 77 74 71 75 75 75 74 75 75 75
65 65 65 67 67 68 67 68 69 70 72 73 74 70 69 69 73 73 73 73 74 77
64 64 65 65 65 66 67 68 68 68 68 69 72 65 65 66 69 71 72 73 73 73
64 63 63 63 64 65 65 66 67 68 68 68 69 63 62 64 69 70 71 73 74 74
60 61 61 63 64 64 64 64 65 67 68 65 68 64 61 63 68 69 70 72 72 66
58 58 60 60 61 62 64 64 64 65 65 68 67 68 61 60 68 68 69 70 71 70

GFSNIL_sfc_temp_111.txt.gz
Temp
70 68 70 71 71 71 71 72 73 73 74 74 74 74 73 73 73 73 73 73 73 72
70 71 71 71 72 71 72 73 73 74 74 74 74 74 73 72 73 73 73 72 72 72
71 71 71 70 71 72 71 72 72 73 74 74 74 74 73 72 73 73 72 73 72 72
71 72 71 71 71 71 71 71 72 72 73 74 74 74 73 72 73 73 72 73 72 73
69 70 71 72 73 73 71 71 71 71 72 72 73 74 73 73 75 73 72 73 72 72
68 70 71 72 73 73 72 72 71 70 71 70 71 72 73 73 73 73 73 73 72 73
68 69 69 71 71 72 72 72 72 71 71 71 71 72 73 74 73 73 74 74 74 74
67 68 68 68 68 69 70 72 72 72 71 72 73 76 73 73 73 73 73 74 74 74
65 67 67 67 67 67 68 69 70 71 73 72 75 72 69 73 73 73 72 73 73 74
64 64 65 66 66 66 67 68 69 69 69 69 70 63 64 67 71 72 71 72 72 73
61 62 64 64 64 64 65 65 66 67 68 67 69 62 62 64 67 69 71 71 72 71
59 60 61 60 62 64 64 64 65 66 66 67 68 63 61 64 68 69 69 70 71 71
59 59 59 59 61 62 63 64 64 65 66 64 67 63 62 63 68 67 68 69 70 61
55 56 56 56 57 60 62 63 63 64 64 66 65 65 57 57 67 66 68 69 69 68

GFSNIL_sfc_temp_114.txt.gz
Temp
71 71 71 72 73 73 72 74 76 75 75 76 77 76 77 77 77 77 77 77 76 77
70 70 71 72 73 73 74 76 76 76 76 76 76 76 76 76 77 77 77 77 77 77
71 72 72 72 72 73 74 75 75 75 76 76 76 76 75 76 76 77 77 77 77 77
72 73 72 71 70 72 74 74 74 73 74 75 75 76 75 75 76 76 76 76 76 77
71 72 73 73 73 72 72 73 74 74 74 75 75 76 76 76 77 76 76 76 76 76
69 70 71 73 74 74 74 73 72 72 73 73 74 75 75 76 76 76 76 76 76 77
68 70 70 71 73 74 74 74 73 73 73 73 74 74 75 75 75 76 77 77 77 76
68 69 69 69 70 71 72 73 74 73 74 74 74 77 74 76 76 75 76 77 78 78
66 67 67 68 68 69 70 70 71 71 72 73 75 64 67 71 76 76 76 76 77 78
65 65 65 66 67 67 67 68 68 69 69 70 70 62 63 67 75 75 75 75 76 77
61 61 63 64 65 64 65 65 66 68 69 69 69 62 61 64 72 72 73 73 74 74
60 60 60 61 62 63 65 65 66 67 68 68 69 61 60 64 70 71 72 73 73 73
59 58 58 59 60 62 63 64 65 65 65 63 68 58 59 62 69 69 70 71 70 61
58 58 57 58 59 59 60 61 62 63 63 64 63 62 56 57 66 67 68 68 68 69

GFSNIL_sfc_temp_117.txt.gz
Temp
80 82 82 83 85 85 85 81 85 83 83 85 85 85 85 87 89 86 88 85 85 89
79 79 81 81 82 85 84 83 84 84 84 85 85 85 84 87 85 86 86 86 85 88
81 80 80 80 81 82 82 84 84 84 84 85 85 85 83 85 85 84 88 89 85 85
79 81 81 81 80 81 81 82 83 83 83 84 84 84 83 83 84 83 84 85 85 84
80 80 81 80 81 81 81 81 81 82 83 82 83 83 83 83 86 83 83 84 84 84
78 79 80 81 82 82 82 81 81 80 81 82 83 82 83 84 85 85 84 84 84 84
75 75 74 77 81 82 82 81 81 80 81 81 83 83 84 83 84 84 85 85 84 84
72 74 74 74 76 80 81 82 82 81 81 81 81 86 83 83 83 84 84 86 85 86
72 72 70 71 72 74 76 77 78 79 80 81 84 64 66 74 84 83 82 82 84 85
67 70 70 70 69 70 72 75 76 76 76 74 75 63 64 67 83 83 83 83 83 84
63 66 68 70 71 71 73 73 73 74 75 75 74 61 61 64 80 81 80 81 81 81
67 67 65 65 67 69 70 71 72 73 72 74 72 61 61 68 75 78 78 79 77 78
64 64 64 64 63 66 67 68 72 72 72 64 70 57 57 67 77 73 75 72 69 61
61 60 61 63 65 67 68 69 68 69 70 70 65 63 55 55 70 73 75 77 76 75

GFSNIL_sfc_temp_120.txt.gz
Temp
85 85 84 87 92 91 92 91 90 89 90 90 90 91 90 92 94 91 94 89 89 96
86 85 83 86 88 90 90 91 90 90 90 90 90 89 89 92 89 91 90 91 90 92
88 87 87 85 85 87 89 90 89 89 90 89 89 90 88 91 90 88 92 94 90 89
88 88 87 88 87 87 88 88 88 88 89 89 89 89 87 88 89 87 88 89 89 89
87 88 88 86 86 88 85 86 87 88 88 88 89 89 88 88 91 88 88 88 88 88
86 87 87 87 87 88 87 87 87 87 86 87 89 88 88 88 88 89 89 89 89 88
85 85 86 86 86 86 87 86 87 87 86 87 89 89 90 89 88 88 90 90 90 89
79 82 83 83 84 87 88 88 88 87 88 88 89 93 88 89 88 88 88 89 90 91
77 78 78 79 78 80 85 87 87 87 87 87 92 65 67 76 89 89 88 87 88 90
75 76 77 76 76 74 76 80 82 84 82 80 80 63 64 68 86 88 87 87 88 90
69 71 73 74 75 76 76 76 77 78 79 77 73 61 62 65 85 85 85 87 87 86
64 65 67 68 72 76 77 76 76 76 77 72 70 58 59 68 84 82 80 76 74 79
63 66 63 63 68 72 75 74 80 73 73 67 71 56 57 66 85 79 83 77 75 62
65 62 65 66 68 69 73 74 69 68 70 69 67 63 55 56 76 77 79 80 76 78